| time (UTC) | temp C | wind direction | speed KPH | gust KPH | rain 1hr cm | rain 24hr cm | rain mn cm | humidity % | barometer mb |
| 20260507040548 | 14 | 273 | 4.8 | 14.5 | 0.00 | 0.20 | 0.00 | 86 | 1006.1 |
| 20260507040052 | 14 | 277 | 6.4 | 16.1 | 0.00 | 0.20 | 0.00 | 90 | 1006.1 |
| 20260507035548 | 14 | 325 | 6.4 | 16.1 | 0.00 | 0.20 | 0.20 | 91 | 1006.2 |
| 20260507035047 | 14 | 306 | 8.0 | 16.1 | 0.00 | 0.20 | 0.20 | 93 | 1006.3 |
| 20260507034555 | 14 | 283 | 1.6 | 9.7 | 0.00 | 0.20 | 0.20 | 94 | 1006.2 |
| 20260507034047 | 14 | 277 | 3.2 | 9.7 | 0.00 | 0.20 | 0.20 | 94 | 1006.3 |
| 20260507033547 | 14 | 269 | 4.8 | 12.9 | 0.00 | 0.20 | 0.20 | 94 | 1006.2 |
| 20260507033050 | 14 | 338 | 4.8 | 14.5 | 0.00 | 0.20 | 0.20 | 94 | 1006.1 |
| 20260507032546 | 14 | 257 | 3.2 | 14.5 | 0.00 | 0.20 | 0.20 | 93 | 1006.2 |
| 20260507032048 | 14 | 242 | 3.2 | 12.9 | 0.00 | 0.20 | 0.20 | 93 | 1006.3 |
| 20260507031555 | 14 | 218 | 4.8 | 12.9 | 0.00 | 0.20 | 0.20 | 93 | 1006.3 |
| 20260507031050 | 14 | 234 | 6.4 | 12.9 | 0.00 | 0.20 | 0.20 | 93 | 1006.0 |
| 20260507030546 | 14 | 262 | 8.0 | 16.1 | 0.00 | 0.20 | 0.20 | 93 | 1005.9 |
| 20260507030053 | 14 | 219 | 8.0 | 16.1 | 0.00 | 0.20 | 0.20 | 93 | 1006.0 |
| 20260507025549 | 14 | 242 | 6.4 | 16.1 | 0.00 | 0.20 | 0.20 | 93 | 1006.0 |
| 20260507025049 | 14 | 226 | 6.4 | 16.1 | 0.00 | 0.20 | 0.20 | 93 | 1006.1 |
| 20260507024555 | 14 | 228 | 8.0 | 16.1 | 0.00 | 0.20 | 0.20 | 93 | 1006.1 |
| 20260507024048 | 14 | 236 | 6.4 | 16.1 | 0.00 | 0.20 | 0.20 | 93 | 1006.0 |
| 20260507023548 | 14 | 233 | 6.4 | 16.1 | 0.00 | 0.20 | 0.20 | 93 | 1006.1 |
| 20260507023055 | 14 | 240 | 6.4 | 14.5 | 0.00 | 0.20 | 0.20 | 93 | 1006.0 |
| 20260507022548 | 14 | 254 | 8.0 | 14.5 | 0.00 | 0.20 | 0.20 | 93 | 1006.0 |
| 20260507022047 | 14 | 215 | 4.8 | 12.9 | 0.00 | 0.20 | 0.20 | 93 | 1005.9 |
| 20260507021550 | 14 | 209 | 4.8 | 12.9 | 0.00 | 0.20 | 0.20 | 93 | 1005.9 |
| 20260507021047 | 14 | 212 | 3.2 | 17.7 | 0.00 | 0.20 | 0.20 | 93 | 1005.9 |
| 20260507020549 | 14 | 252 | 6.4 | 17.7 | 0.00 | 0.20 | 0.20 | 93 | 1006.0 |
| 20260507020108 | 14 | 234 | 6.4 | 14.5 | 0.03 | 0.20 | 0.20 | 93 | 1006.0 |
| 20260507015548 | 14 | 216 | 6.4 | 11.3 | 0.03 | 0.20 | 0.20 | 94 | 1006.1 |
| 20260507015047 | 14 | 259 | 3.2 | 11.3 | 0.03 | 0.20 | 0.20 | 94 | 1006.1 |
| 20260507014558 | 13 | 45 | 3.2 | 11.3 | 0.03 | 0.20 | 0.20 | 94 | 1005.9 |
| 20260507014049 | 13 | 272 | 3.2 | 9.7 | 0.03 | 0.20 | 0.20 | 93 | 1005.9 |
| 20260507013548 | 13 | 211 | 4.8 | 12.9 | 0.03 | 0.20 | 0.20 | 94 | 1006.1 |
| 20260507013053 | 13 | 219 | 3.2 | 12.9 | 0.03 | 0.20 | 0.20 | 94 | 1006.0 |
| 20260507012548 | 13 | 238 | 6.4 | 12.9 | 0.03 | 0.20 | 0.20 | 94 | 1005.9 |
| 20260507012049 | 13 | 249 | 4.8 | 12.9 | 0.03 | 0.20 | 0.20 | 94 | 1005.8 |
| 20260507011550 | 13 | 232 | 4.8 | 12.9 | 0.03 | 0.20 | 0.20 | 94 | 1006.1 |
| 20260507011048 | 13 | 243 | 6.4 | 12.9 | 0.03 | 0.20 | 0.20 | 94 | 1006.3 |
| 20260507010547 | 13 | 226 | 3.2 | 12.9 | 0.03 | 0.20 | 0.20 | 94 | 1006.1 |
| 20260507010100 | 13 | 209 | 3.2 | 12.9 | 0.00 | 0.18 | 0.18 | 94 | 1006.4 |
| 20260507005547 | 13 | 252 | 4.8 | 11.3 | 0.00 | 0.18 | 0.18 | 94 | 1006.3 |
| 20260507005048 | 13 | 198 | 4.8 | 12.9 | 0.00 | 0.18 | 0.18 | 94 | 1006.4 |
| 20260507004551 | 13 | 242 | 4.8 | 16.1 | 0.00 | 0.18 | 0.18 | 94 | 1006.4 |
| 20260507004048 | 13 | 260 | 6.4 | 16.1 | 0.00 | 0.18 | 0.18 | 94 | 1006.4 |
| 20260507003546 | 13 | 249 | 6.4 | 16.1 | 0.00 | 0.18 | 0.18 | 94 | 1006.4 |
| 20260507003050 | 13 | 250 | 6.4 | 16.1 | 0.00 | 0.18 | 0.18 | 94 | 1006.4 |
| 20260507002547 | 13 | 213 | 3.2 | 14.5 | 0.00 | 0.18 | 0.18 | 94 | 1006.4 |
| 20260507002047 | 13 | 208 | 6.4 | 14.5 | 0.00 | 0.18 | 0.18 | 94 | 1006.2 |
| 20260507001557 | 13 | 201 | 3.2 | 12.9 | 0.00 | 0.18 | 0.18 | 94 | 1006.2 |
| 20260507001049 | 13 | 230 | 4.8 | 12.9 | 0.00 | 0.18 | 0.18 | 93 | 1006.2 |
| 20260507000546 | 13 | 269 | 4.8 | 12.9 | 0.00 | 0.18 | 0.18 | 93 | 1006.1 |
| 20260507000054 | 13 | 259 | 4.8 | 12.9 | 0.00 | 0.18 | 0.18 | 93 | 1006.2 |
| 20260506235549 | 13 | 238 | 4.8 | 11.3 | 0.00 | 0.18 | 0.18 | 93 | 1006.1 |
| 20260506235047 | 13 | 213 | 4.8 | 12.9 | 0.00 | 0.18 | 0.18 | 93 | 1006.2 |
| 20260506234558 | 13 | 240 | 4.8 | 16.1 | 0.00 | 0.18 | 0.18 | 93 | 1006.0 |
| 20260506234045 | 13 | 252 | 4.8 | 16.1 | 0.00 | 0.18 | 0.18 | 92 | 1006.0 |
| 20260506233549 | 13 | 250 | 4.8 | 12.9 | 0.00 | 0.18 | 0.18 | 93 | 1006.0 |
| 20260506233055 | 13 | 238 | 4.8 | 12.9 | 0.00 | 0.18 | 0.18 | 93 | 1005.9 |
| 20260506232545 | 13 | 211 | 3.2 | 9.7 | 0.00 | 0.18 | 0.18 | 92 | 1005.9 |
| 20260506232045 | 13 | 233 | 3.2 | 12.9 | 0.00 | 0.18 | 0.18 | 92 | 1005.9 |
| 20260506231605 | 14 | 0 | 4.8 | 14.5 | 0.00 | 0.18 | 0.18 | 92 | 1005.8 |
| 20260506231047 | 14 | 0 | 6.4 | 14.5 | 0.00 | 0.18 | 0.18 | 92 | 1005.9 |
| 20260506230547 | 14 | 209 | 6.4 | 12.9 | 0.00 | 0.18 | 0.18 | 92 | 1005.9 |
| 20260506230114 | 14 | 0 | 4.8 | 12.9 | 0.00 | 0.18 | 0.18 | 92 | 1005.9 |
| 20260506225552 | 14 | 174 | 4.8 | 12.9 | 0.00 | 0.18 | 0.18 | 92 | 1005.9 |
| 20260506225046 | 14 | 234 | 4.8 | 12.9 | 0.00 | 0.18 | 0.18 | 92 | 1006.0 |
| 20260506224550 | 14 | 236 | 8.0 | 12.9 | 0.00 | 0.18 | 0.18 | 91 | 1005.9 |
| 20260506224045 | 14 | 260 | 6.4 | 12.9 | 0.00 | 0.18 | 0.18 | 92 | 1005.9 |
| 20260506223546 | 14 | 192 | 3.2 | 12.9 | 0.00 | 0.18 | 0.18 | 92 | 1006.0 |
| 20260506223051 | 14 | 237 | 3.2 | 11.3 | 0.00 | 0.18 | 0.18 | 92 | 1005.8 |
| 20260506222548 | 14 | 187 | 4.8 | 11.3 | 0.00 | 0.18 | 0.18 | 92 | 1005.7 |
| 20260506222048 | 14 | 205 | 3.2 | 11.3 | 0.03 | 0.18 | 0.18 | 92 | 1005.7 |
| 20260506221609 | 14 | 234 | 1.6 | 11.3 | 0.03 | 0.18 | 0.18 | 92 | 1005.8 |
| 20260506221047 | 14 | 268 | 3.2 | 11.3 | 0.03 | 0.18 | 0.18 | 92 | 1005.7 |
| 20260506220551 | 14 | 219 | 4.8 | 14.5 | 0.03 | 0.18 | 0.18 | 92 | 1005.8 |
| 20260506220105 | 14 | 201 | 4.8 | 14.5 | 0.03 | 0.18 | 0.18 | 92 | 1005.9 |
| 20260506215547 | 14 | 216 | 0.0 | 14.5 | 0.03 | 0.18 | 0.18 | 92 | 1006.1 |
| 20260506215048 | 14 | 243 | 6.4 | 14.5 | 0.03 | 0.18 | 0.18 | 92 | 1006.2 |
| 20260506214553 | 14 | 199 | 4.8 | 14.5 | 0.03 | 0.18 | 0.18 | 92 | 1006.2 |
| 20260506214048 | 14 | 243 | 4.8 | 14.5 | 0.03 | 0.18 | 0.18 | 92 | 1006.2 |
| 20260506213548 | 14 | 0 | 4.8 | 17.7 | 0.03 | 0.18 | 0.18 | 92 | 1006.1 |
| 20260506213105 | 14 | 211 | 3.2 | 17.7 | 0.03 | 0.18 | 0.18 | 92 | 1006.3 |
| 20260506212548 | 14 | 229 | 6.4 | 16.1 | 0.03 | 0.18 | 0.18 | 92 | 1006.2 |
| 20260506212048 | 14 | 232 | 6.4 | 14.5 | 0.00 | 0.15 | 0.15 | 92 | 1006.3 |
| 20260506211610 | 14 | 232 | 6.4 | 19.3 | 0.00 | 0.15 | 0.15 | 91 | 1006.4 |
| 20260506211049 | 15 | 233 | 9.7 | 19.3 | 0.00 | 0.15 | 0.15 | 90 | 1006.5 |
| 20260506210548 | 15 | 212 | 9.7 | 19.3 | 0.00 | 0.15 | 0.15 | 90 | 1006.6 |
| 20260506210056 | 15 | 268 | 4.8 | 16.1 | 0.00 | 0.15 | 0.15 | 90 | 1006.7 |
| 20260506205547 | 15 | 247 | 8.0 | 19.3 | 0.00 | 0.15 | 0.15 | 90 | 1006.7 |
| 20260506205049 | 15 | 221 | 6.4 | 19.3 | 0.00 | 0.15 | 0.15 | 90 | 1006.6 |
| 20260506204601 | 15 | 216 | 8.0 | 16.1 | 0.00 | 0.15 | 0.15 | 90 | 1006.7 |
| 20260506204047 | 15 | 205 | 4.8 | 14.5 | 0.03 | 0.15 | 0.15 | 91 | 1006.6 |
| 20260506203548 | 15 | 223 | 1.6 | 12.9 | 0.03 | 0.15 | 0.15 | 91 | 1006.7 |
| 20260506203048 | 15 | 215 | 3.2 | 12.9 | 0.03 | 0.15 | 0.15 | 90 | 1006.8 |
| 20260506202548 | 15 | 253 | 6.4 | 16.1 | 0.05 | 0.15 | 0.15 | 90 | 1006.7 |
| 20260506202049 | 15 | 227 | 4.8 | 16.1 | 0.08 | 0.15 | 0.15 | 90 | 1006.8 |
| 20260506201550 | 15 | 265 | 6.4 | 12.9 | 0.08 | 0.15 | 0.15 | 91 | 1006.9 |
| 20260506201048 | 15 | 193 | 4.8 | 19.3 | 0.10 | 0.15 | 0.15 | 91 | 1006.8 |
| 20260506200549 | 15 | 227 | 4.8 | 29.0 | 0.10 | 0.15 | 0.15 | 90 | 1006.9 |
| 20260506200054 | 15 | 250 | 6.4 | 29.0 | 0.10 | 0.15 | 0.15 | 90 | 1006.9 |
| 20260506195552 | 15 | 261 | 9.7 | 29.0 | 0.10 | 0.15 | 0.15 | 90 | 1007.1 |
| 20260506195049 | 15 | 217 | 6.4 | 14.5 | 0.13 | 0.15 | 0.15 | 90 | 1007.1 |
| 20260506194552 | 15 | 223 | 6.4 | 12.9 | 0.13 | 0.15 | 0.15 | 90 | 1007.1 |
| 20260506194048 | 15 | 236 | 1.6 | 11.3 | 0.10 | 0.13 | 0.13 | 91 | 1007.0 |
| 20260506193547 | 15 | 232 | 4.8 | 17.7 | 0.13 | 0.13 | 0.13 | 90 | 1007.1 |
| 20260506193047 | 15 | 196 | 8.0 | 17.7 | 0.13 | 0.13 | 0.13 | 89 | 1007.1 |
| 20260506192548 | 15 | 213 | 4.8 | 11.3 | 0.10 | 0.10 | 0.10 | 89 | 1007.1 |
| 20260506192048 | 15 | 202 | 3.2 | 9.7 | 0.08 | 0.08 | 0.08 | 88 | 1007.2 |
| 20260506191553 | 15 | 255 | 3.2 | 17.7 | 0.08 | 0.08 | 0.08 | 87 | 1007.2 |
| 20260506191048 | 15 | 211 | 3.2 | 17.7 | 0.05 | 0.05 | 0.05 | 86 | 1007.3 |
| 20260506190548 | 15 | 253 | 9.7 | 33.8 | 0.05 | 0.05 | 0.05 | 85 | 1007.2 |
| 20260506190051 | 15 | 227 | 12.9 | 33.8 | 0.05 | 0.05 | 0.05 | 85 | 1007.2 |
| 20260506185548 | 15 | 217 | 9.7 | 24.1 | 0.05 | 0.05 | 0.05 | 84 | 1007.4 |
| 20260506185048 | 15 | 192 | 6.4 | 24.1 | 0.03 | 0.03 | 0.03 | 83 | 1007.4 |
| 20260506184605 | 16 | 221 | 11.3 | 24.1 | 0.03 | 0.03 | 0.03 | 82 | 1007.6 |
| 20260506184048 | 16 | 235 | 4.8 | 20.9 | 0.00 | 0.00 | 0.00 | 82 | 1007.6 |
| 20260506183554 | 16 | 235 | 8.0 | 20.9 | 0.00 | 0.00 | 0.00 | 79 | 1007.7 |
| 20260506183051 | 16 | 238 | 8.0 | 19.3 | 0.00 | 0.00 | 0.00 | 77 | 1007.7 |
| 20260506182547 | 17 | 260 | 9.7 | 24.1 | 0.00 | 0.00 | 0.00 | 76 | 1007.6 |
| 20260506182051 | 17 | 236 | 9.7 | 25.7 | 0.00 | 0.00 | 0.00 | 75 | 1007.7 |
| 20260506181552 | 17 | 259 | 11.3 | 25.7 | 0.00 | 0.00 | 0.00 | 74 | 1007.9 |
| 20260506181048 | 17 | 223 | 16.1 | 25.7 | 0.00 | 0.00 | 0.00 | 72 | 1007.9 |
| 20260506180548 | 17 | 234 | 17.7 | 25.7 | 0.00 | 0.00 | 0.00 | 71 | 1007.8 |
| 20260506180058 | 18 | 205 | 14.5 | 22.5 | 0.00 | 0.00 | 0.00 | 70 | 1007.9 |
| 20260506175548 | 18 | 207 | 6.4 | 30.6 | 0.00 | 0.00 | 0.00 | 68 | 1007.8 |
| 20260506175050 | 18 | 217 | 6.4 | 30.6 | 0.00 | 0.00 | 0.00 | 69 | 1007.9 |
| 20260506174557 | 18 | 251 | 16.1 | 30.6 | 0.00 | 0.00 | 0.00 | 67 | 1008.0 |
| 20260506174047 | 18 | 196 | 14.5 | 30.6 | 0.00 | 0.00 | 0.00 | 67 | 1008.0 |
| 20260506173548 | 19 | 239 | 11.3 | 29.0 | 0.00 | 0.00 | 0.00 | 65 | 1007.9 |
| 20260506173051 | 20 | 259 | 12.9 | 29.0 | 0.00 | 0.00 | 0.00 | 65 | 1007.9 |
| 20260506172549 | 20 | 199 | 11.3 | 30.6 | 0.00 | 0.00 | 0.00 | 65 | 1008.0 |
| 20260506172048 | 20 | 250 | 14.5 | 30.6 | 0.00 | 0.00 | 0.00 | 64 | 1008.0 |
| 20260506171607 | 20 | 190 | 11.3 | 30.6 | 0.00 | 0.00 | 0.00 | 64 | 1008.0 |
| 20260506171048 | 20 | 265 | 12.9 | 30.6 | 0.00 | 0.00 | 0.00 | 64 | 1008.1 |
| 20260506170549 | 20 | 235 | 17.7 | 30.6 | 0.00 | 0.00 | 0.00 | 64 | 1008.0 |
| 20260506170100 | 19 | 211 | 12.9 | 25.7 | 0.00 | 0.00 | 0.00 | 65 | 1008.0 |
| 20260506165548 | 20 | 167 | 12.9 | 24.1 | 0.00 | 0.00 | 0.00 | 62 | 1008.1 |
| 20260506165048 | 21 | 170 | 9.7 | 33.8 | 0.00 | 0.00 | 0.00 | 62 | 1008.0 |
| 20260506164555 | 21 | 202 | 12.9 | 33.8 | 0.00 | 0.00 | 0.00 | 62 | 1008.0 |
| 20260506164048 | 20 | 200 | 9.7 | 24.1 | 0.00 | 0.00 | 0.00 | 60 | 1008.2 |
| 20260506163547 | 20 | 194 | 11.3 | 25.7 | 0.00 | 0.00 | 0.00 | 63 | 1008.2 |
| 20260506163107 | 20 | 213 | 11.3 | 25.7 | 0.00 | 0.00 | 0.00 | 63 | 1008.2 |
| 20260506162551 | 20 | 238 | 9.7 | 22.5 | 0.00 | 0.00 | 0.00 | 63 | 1008.5 |
| 20260506162048 | 20 | 243 | 9.7 | 22.5 | 0.00 | 0.00 | 0.00 | 62 | 1008.5 |
| 20260506161557 | 20 | 216 | 11.3 | 22.5 | 0.00 | 0.00 | 0.00 | 63 | 1008.6 |
| 20260506161050 | 20 | 202 | 8.0 | 24.1 | 0.00 | 0.00 | 0.00 | 62 | 1008.6 |
| 20260506160549 | 20 | 207 | 8.0 | 27.4 | 0.00 | 0.00 | 0.00 | 61 | 1008.7 |
| 20260506155548 | 20 | 223 | 9.7 | 29.0 | 0.00 | 0.00 | 0.00 | 63 | 1008.9 |
| 20260506155047 | 20 | 229 | 14.5 | 29.0 | 0.00 | 0.00 | 0.00 | 63 | 1008.9 |
| 20260506154558 | 20 | 193 | 12.9 | 27.4 | 0.00 | 0.00 | 0.00 | 62 | 1008.9 |
| 20260506154051 | 20 | 236 | 11.3 | 27.4 | 0.00 | 0.00 | 0.00 | 63 | 1008.9 |
| 20260506153547 | 20 | 196 | 11.3 | 27.4 | 0.00 | 0.00 | 0.00 | 62 | 1009.1 |
| 20260506153059 | 20 | 155 | 9.7 | 33.8 | 0.00 | 0.00 | 0.00 | 62 | 1009.0 |
| 20260506152548 | 20 | 249 | 12.9 | 33.8 | 0.00 | 0.00 | 0.00 | 63 | 1009.1 |
| 20260506152048 | 20 | 245 | 9.7 | 27.4 | 0.00 | 0.00 | 0.00 | 61 | 1009.2 |
| 20260506151556 | 20 | 199 | 14.5 | 27.4 | 0.00 | 0.00 | 0.00 | 63 | 1009.2 |
| 20260506151047 | 20 | 211 | 12.9 | 25.7 | 0.00 | 0.00 | 0.00 | 65 | 1009.3 |
| 20260506150547 | 20 | 261 | 12.9 | 25.7 | 0.00 | 0.00 | 0.00 | 63 | 1009.3 |
| 20260506150056 | 19 | 203 | 12.9 | 33.8 | 0.00 | 0.00 | 0.00 | 62 | 1009.3 |
| 20260506145548 | 20 | 188 | 8.0 | 33.8 | 0.00 | 0.00 | 0.00 | 65 | 1009.4 |
| 20260506145049 | 19 | 247 | 12.9 | 27.4 | 0.00 | 0.00 | 0.00 | 66 | 1009.3 |
| 20260506144601 | 19 | 234 | 6.4 | 24.1 | 0.00 | 0.00 | 0.00 | 67 | 1009.4 |
| 20260506144047 | 18 | 272 | 11.3 | 30.6 | 0.00 | 0.00 | 0.00 | 68 | 1009.5 |
| 20260506143548 | 18 | 200 | 14.5 | 30.6 | 0.00 | 0.00 | 0.00 | 67 | 1009.5 |
| 20260506143050 | 19 | 211 | 6.4 | 30.6 | 0.00 | 0.00 | 0.00 | 67 | 1009.5 |
| 20260506142548 | 19 | 175 | 8.0 | 22.5 | 0.00 | 0.00 | 0.00 | 67 | 1009.4 |
| 20260506142048 | 18 | 232 | 9.7 | 25.7 | 0.00 | 0.00 | 0.00 | 67 | 1009.4 |
| 20260506141547 | 18 | 243 | 9.7 | 25.7 | 0.00 | 0.00 | 0.00 | 67 | 1009.2 |
| 20260506141048 | 19 | 213 | 9.7 | 20.9 | 0.00 | 0.00 | 0.00 | 66 | 1009.2 |
| 20260506140548 | 19 | 215 | 9.7 | 30.6 | 0.00 | 0.00 | 0.00 | 66 | 1009.2 |
| 20260506140051 | 19 | 217 | 8.0 | 30.6 | 0.00 | 0.00 | 0.00 | 68 | 1009.3 |
| 20260506135547 | 18 | 223 | 11.3 | 30.6 | 0.00 | 0.00 | 0.00 | 68 | 1009.5 |
| 20260506135047 | 18 | 248 | 11.3 | 25.7 | 0.00 | 0.00 | 0.00 | 65 | 1009.3 |
| 20260506134552 | 18 | 243 | 8.0 | 25.7 | 0.00 | 0.00 | 0.00 | 69 | 1009.3 |
| 20260506134048 | 18 | 180 | 11.3 | 25.7 | 0.00 | 0.00 | 0.00 | 69 | 1009.2 |
| 20260506133548 | 18 | 171 | 4.8 | 22.5 | 0.00 | 0.00 | 0.00 | 70 | 1009.3 |
| 20260506133054 | 18 | 242 | 8.0 | 24.1 | 0.00 | 0.00 | 0.00 | 70 | 1009.4 |
| 20260506132549 | 18 | 248 | 11.3 | 24.1 | 0.00 | 0.00 | 0.00 | 70 | 1009.5 |
| 20260506132050 | 18 | 186 | 9.7 | 19.3 | 0.00 | 0.00 | 0.00 | 72 | 1009.7 |
| 20260506131607 | 17 | 185 | 9.7 | 19.3 | 0.00 | 0.00 | 0.00 | 71 | 1009.9 |
| 20260506131047 | 17 | 248 | 6.4 | 27.4 | 0.00 | 0.00 | 0.00 | 75 | 1009.9 |
| 20260506130547 | 17 | 195 | 9.7 | 27.4 | 0.00 | 0.00 | 0.00 | 74 | 1009.9 |
| 20260506130056 | 17 | 221 | 11.3 | 30.6 | 0.00 | 0.00 | 0.00 | 74 | 1009.9 |
| 20260506125549 | 17 | 179 | 12.9 | 30.6 | 0.00 | 0.00 | 0.00 | 76 | 1009.8 |
| 20260506125047 | 17 | 239 | 12.9 | 24.1 | 0.00 | 0.00 | 0.00 | 76 | 1009.9 |
| 20260506124556 | 16 | 271 | 9.7 | 20.9 | 0.00 | 0.00 | 0.00 | 77 | 1009.8 |
| 20260506124048 | 16 | 194 | 9.7 | 25.7 | 0.00 | 0.00 | 0.00 | 77 | 1009.9 |
| 20260506123548 | 16 | 251 | 12.9 | 25.7 | 0.00 | 0.00 | 0.00 | 77 | 1009.9 |
| 20260506123055 | 16 | 242 | 6.4 | 20.9 | 0.00 | 0.00 | 0.00 | 77 | 1009.9 |
| 20260506122547 | 16 | 204 | 9.7 | 24.1 | 0.00 | 0.00 | 0.00 | 78 | 1009.9 |
| 20260506122048 | 16 | 241 | 9.7 | 24.1 | 0.00 | 0.00 | 0.00 | 78 | 1009.8 |
| 20260506121600 | 16 | 226 | 6.4 | 24.1 | 0.00 | 0.00 | 0.00 | 78 | 1009.9 |
| 20260506121050 | 16 | 211 | 8.0 | 24.1 | 0.00 | 0.00 | 0.00 | 78 | 1009.9 |
| 20260506120548 | 16 | 206 | 11.3 | 24.1 | 0.00 | 0.00 | 0.00 | 79 | 1009.8 |
| 20260506120055 | 16 | 232 | 6.4 | 33.8 | 0.00 | 0.00 | 0.00 | 79 | 1009.9 |
| 20260506115548 | 15 | 265 | 9.7 | 33.8 | 0.00 | 0.00 | 0.00 | 80 | 1009.9 |
| 20260506115048 | 15 | 257 | 8.0 | 19.3 | 0.00 | 0.00 | 0.00 | 80 | 1010.1 |
| 20260506114556 | 15 | 284 | 8.0 | 22.5 | 0.00 | 0.00 | 0.00 | 81 | 1010.2 |
| 20260506114048 | 15 | 229 | 6.4 | 22.5 | 0.00 | 0.00 | 0.00 | 82 | 1010.2 |
| 20260506113548 | 15 | 233 | 3.2 | 17.7 | 0.00 | 0.00 | 0.00 | 82 | 1010.2 |
| 20260506113054 | 15 | 213 | 8.0 | 19.3 | 0.00 | 0.00 | 0.00 | 82 | 1010.2 |
| 20260506112552 | 15 | 259 | 6.4 | 20.9 | 0.00 | 0.00 | 0.00 | 82 | 1010.2 |
| 20260506112048 | 15 | 213 | 4.8 | 20.9 | 0.00 | 0.00 | 0.00 | 82 | 1010.3 |
| 20260506111554 | 15 | 240 | 9.7 | 19.3 | 0.00 | 0.00 | 0.00 | 82 | 1010.3 |
| 20260506111048 | 15 | 225 | 9.7 | 19.3 | 0.00 | 0.00 | 0.00 | 82 | 1010.2 |
| 20260506110548 | 15 | 202 | 6.4 | 14.5 | 0.00 | 0.00 | 0.00 | 82 | 1010.2 |
| 20260506110055 | 15 | 221 | 6.4 | 14.5 | 0.00 | 0.00 | 0.00 | 83 | 1010.2 |
| 20260506105548 | 15 | 222 | 3.2 | 19.3 | 0.00 | 0.00 | 0.00 | 83 | 1010.1 |
| 20260506105048 | 14 | 246 | 8.0 | 19.3 | 0.00 | 0.00 | 0.00 | 83 | 1010.1 |
| 20260506104601 | 14 | 203 | 8.0 | 19.3 | 0.00 | 0.00 | 0.00 | 83 | 1010.1 |
| 20260506104048 | 14 | 266 | 4.8 | 12.9 | 0.00 | 0.00 | 0.00 | 83 | 1010.2 |
| 20260506103548 | 14 | 251 | 4.8 | 16.1 | 0.00 | 0.00 | 0.00 | 83 | 1010.2 |
| 20260506103056 | 14 | 209 | 6.4 | 16.1 | 0.00 | 0.00 | 0.00 | 80 | 1010.1 |
| 20260506102548 | 14 | 265 | 4.8 | 14.5 | 0.00 | 0.00 | 0.00 | 83 | 1010.1 |
| 20260506102048 | 14 | 244 | 4.8 | 14.5 | 0.00 | 0.00 | 0.00 | 84 | 1010.1 |
| 20260506101557 | 14 | 216 | 6.4 | 14.5 | 0.00 | 0.00 | 0.00 | 83 | 1010.1 |
| 20260506101048 | 14 | 202 | 6.4 | 14.5 | 0.00 | 0.00 | 0.00 | 83 | 1010.0 |
| 20260506100548 | 14 | 229 | 4.8 | 12.9 | 0.00 | 0.00 | 0.00 | 83 | 1010.2 |
| 20260506100109 | 14 | 250 | 6.4 | 16.1 | 0.00 | 0.00 | 0.00 | 83 | 1010.1 |
| 20260506095548 | 14 | 258 | 4.8 | 17.7 | 0.00 | 0.00 | 0.00 | 83 | 1010.1 |
| 20260506095048 | 14 | 217 | 6.4 | 17.7 | 0.00 | 0.00 | 0.00 | 80 | 1010.0 |
| 20260506094555 | 14 | 167 | 4.8 | 14.5 | 0.00 | 0.00 | 0.00 | 83 | 1010.0 |
| 20260506094048 | 14 | 263 | 4.8 | 16.1 | 0.00 | 0.00 | 0.00 | 83 | 1010.0 |
| 20260506093548 | 14 | 251 | 6.4 | 16.1 | 0.00 | 0.00 | 0.00 | 82 | 1009.9 |
| 20260506093056 | 14 | 196 | 3.2 | 17.7 | 0.00 | 0.00 | 0.00 | 82 | 1009.8 |
| 20260506092549 | 14 | 223 | 3.2 | 17.7 | 0.00 | 0.00 | 0.00 | 82 | 1009.8 |
| 20260506092048 | 14 | 188 | 8.0 | 17.7 | 0.00 | 0.00 | 0.00 | 82 | 1009.9 |
| 20260506091556 | 14 | 196 | 4.8 | 17.7 | 0.00 | 0.00 | 0.00 | 82 | 1009.9 |
| 20260506091048 | 14 | 227 | 6.4 | 17.7 | 0.00 | 0.00 | 0.00 | 82 | 1010.0 |
| 20260506090548 | 14 | 257 | 6.4 | 17.7 | 0.00 | 0.00 | 0.00 | 82 | 1009.9 |
| 20260506090121 | 14 | 223 | 4.8 | 14.5 | 0.00 | 0.00 | 0.00 | 82 | 1010.0 |
| 20260506085547 | 14 | 242 | 8.0 | 12.9 | 0.00 | 0.00 | 0.00 | 82 | 1010.0 |
| 20260506085048 | 14 | 215 | 3.2 | 14.5 | 0.00 | 0.00 | 0.00 | 82 | 1010.1 |
| 20260506084553 | 14 | 211 | 6.4 | 14.5 | 0.00 | 0.00 | 0.00 | 81 | 1010.0 |
| 20260506084047 | 15 | 254 | 8.0 | 14.5 | 0.00 | 0.00 | 0.00 | 81 | 1010.2 |
| 20260506083547 | 15 | 263 | 4.8 | 16.1 | 0.00 | 0.00 | 0.00 | 81 | 1010.2 |
| 20260506083050 | 15 | 210 | 6.4 | 16.1 | 0.00 | 0.00 | 0.00 | 81 | 1010.2 |
| 20260506082551 | 15 | 236 | 6.4 | 16.1 | 0.00 | 0.00 | 0.00 | 81 | 1010.1 |
| 20260506082048 | 15 | 252 | 6.4 | 12.9 | 0.00 | 0.00 | 0.00 | 81 | 1010.1 |
| 20260506081550 | 15 | 202 | 4.8 | 14.5 | 0.00 | 0.00 | 0.00 | 81 | 1010.2 |
| 20260506081048 | 15 | 213 | 8.0 | 17.7 | 0.00 | 0.00 | 0.00 | 80 | 1010.2 |
| 20260506080548 | 15 | 234 | 8.0 | 17.7 | 0.00 | 0.00 | 0.00 | 80 | 1010.2 |
| 20260506073051 | 15 | 245 | 8.0 | 24.1 | 0.00 | 0.00 | 0.00 | 80 | 1010.2 |
| 20260506072548 | 15 | 231 | 9.7 | 24.1 | 0.00 | 0.00 | 0.00 | 80 | 1010.2 |
| 20260506072049 | 15 | 241 | 8.0 | 27.4 | 0.00 | 0.00 | 0.00 | 79 | 1010.1 |
| 20260506071557 | 15 | 245 | 6.4 | 27.4 | 0.00 | 0.00 | 0.00 | 79 | 1010.1 |
| 20260506071048 | 15 | 248 | 9.7 | 24.1 | 0.00 | 0.00 | 0.00 | 79 | 1010.0 |
| 20260506070550 | 15 | 246 | 12.9 | 24.1 | 0.00 | 0.00 | 0.00 | 78 | 1010.0 |
| 20260506062047 | 15 | 239 | 9.7 | 27.4 | 0.00 | 0.00 | 0.00 | 76 | 1009.8 |
| 20260506061552 | 16 | 226 | 11.3 | 27.4 | 0.00 | 0.00 | 0.00 | 76 | 1009.8 |
| 20260506061048 | 16 | 192 | 16.1 | 27.4 | 0.00 | 0.00 | 0.00 | 75 | 1009.9 |
| 20260506060548 | 16 | 251 | 11.3 | 33.8 | 0.00 | 0.00 | 0.00 | 75 | 1009.8 |
| 20260506051048 | 16 | 237 | 12.9 | 29.0 | 0.00 | 0.00 | 0.00 | 71 | 1010.1 |
| 20260506050548 | 16 | 195 | 11.3 | 25.7 | 0.00 | 0.00 | 0.00 | 71 | 1010.1 |
| 20260506045051 | 17 | 209 | 11.3 | 25.7 | 0.00 | 0.00 | 0.00 | 70 | 1010.2 |
| 20260506044554 | 17 | 227 | 14.5 | 25.7 | 0.00 | 0.00 | 0.00 | 70 | 1010.4 |
| 20260506044050 | 17 | 200 | 14.5 | 27.4 | 0.00 | 0.00 | 0.00 | 70 | 1010.3 |
| 20260506043547 | 17 | 240 | 12.9 | 32.2 | 0.00 | 0.00 | 0.00 | 70 | 1010.3 |
| 20260506043052 | 17 | 263 | 14.5 | 32.2 | 0.00 | 0.00 | 0.00 | 70 | 1010.5 |
| 20260506042551 | 17 | 248 | 16.1 | 29.0 | 0.00 | 0.00 | 0.00 | 70 | 1010.4 |
| 20260506042051 | 17 | 217 | 12.9 | 25.7 | 0.00 | 0.00 | 0.00 | 69 | 1010.4 |
| 20260506041555 | 17 | 220 | 11.3 | 30.6 | 0.00 | 0.00 | 0.00 | 69 | 1010.4 |
| 20260506041047 | 17 | 218 | 14.5 | 30.6 | 0.00 | 0.00 | 0.00 | 68 | 1010.4 |